This demonstration page uses our WeatherBlox Daily Observations layout. Learn more.

Left ArrowRight Arrow

Hourly Observations for November 19, 2019

Temp ( °F °C ) Dew Point ( °F °C ) Humidity (%) Winds ( mph kmh ) Pressure ( in mb ) Visibility ( mi km ) Precip ( " mm )
12:53 am 00:53 Clear 36 2.2 26 -3.3 67 67 W 10 17 29.89 1012 10 16 0.00 0.00
1:53 am 01:53 Clear 37 2.8 26 -3.3 65 65 W 7 11 29.88 1012 10 16 0.00 0.00
2:53 am 02:53 Clear 36 2.2 27 -2.8 70 70 W 7 11 29.90 1013 10 16 0.00 0.00
3:53 am 03:53 Clear 35 1.7 26 -3.3 70 70 W 7 11 29.89 1012 10 16 0.00 0.00
4:53 am 04:53 Clear 35 1.7 25 -3.9 67 67 WSW 7 11 29.89 1012 10 16 0.00 0.00
5:53 am 05:53 Clear 35 1.7 25 -3.9 67 67 W 7 11 29.91 1013 10 16 0.00 0.00
6:53 am 06:53 Clear 34 1.1 26 -3.3 73 73 W 7 11 29.92 1013 10 16 0.00 0.00
7:53 am 07:53 Sunny 33 0.6 25 -3.9 72 72 W 3 6 29.95 1014 10 16 0.00 0.00
8:53 am 08:53 Sunny 40 4.4 28 -2.2 63 63 WSW 5 7 29.95 1014 10 16 0.00 0.00
9:53 am 09:53 Sunny 50 10 32 0 50 50 Calm 29.94 1014 10 16 0.00 0.00
10:53 am 10:53 Sunny 55 12.8 31 -0.6 40 40 SW 8 13 29.93 1014 10 16 0.00 0.00
11:53 am 11:53 Sunny 58 14.4 32 0 38 38 S 8 13 29.91 1013 10 16 0.00 0.00
12:53 pm 12:53 Sunny 60 15.6 31 -0.6 33 33 SSW 10 17 29.88 1012 10 16 0.00 0.00
1:53 pm 13:53 Sunny 62 16.7 30 -1.1 30 30 SSE 9 15 29.85 1011 10 16 0.00 0.00
2:53 pm 14:53 Sunny 62 16.7 32 0 32 32 SSE 10 17 29.83 1010 10 16 0.00 0.00
3:53 pm 15:53 Sunny 62 16.7 30 -1.1 30 30 SSE 9 15 29.82 1010 10 16 0.00 0.00
4:53 pm 16:53 Sunny 58 14.4 30 -1.1 35 35 SSE 8 13 29.84 1010 10 16 0.00 0.00
5:53 pm 17:53 Clear 53 11.7 32 0 45 45 SE 8 13 29.85 1011 10 16 0.00 0.00
6:53 pm 18:53 Clear 52 11.1 31 -0.6 45 45 SE 9 15 29.85 1011 10 16 0.00 0.00
7:53 pm 19:53 Clear 50 10 30 -1.1 46 46 SE 13 20 29.85 1011 10 16 0.00 0.00
8:53 pm 20:53 Clear 49 9.4 30 -1.1 48 48 SE 13 20 29.84 1011 10 16 0.00 0.00
9:53 pm 21:53 Clear 48 8.9 30 -1.1 50 50 SSE 10 17 29.83 1010 10 16 0.00 0.00
10:53 pm 22:53 Clear 47 8.3 30 -1.1 52 52 SE 9 15 29.81 1010 10 16 0.00 0.00
11:53 pm 23:53 Clear 46 7.8 31 -0.6 56 56 SE 10 17 29.79 1009 10 16 0.00 0.00

Powered by AerisWeather